CAPE
0 0 0 0 0 0 1 0 0 0 0 0 0 0 0 0 0 0 0 0 0 0 0 0 0 0 0 10 4 0 0 4 4 41 62 66 21 3 19 0 4 1 0 0 0
0 0 0 0 0 0 0 0 0 0 0 0 0 0 0 0 0 0 0 0 0 0 0 0 0 0 0 9 1 0 0 2 26 30 16 103 67 69 0 7 0 0 0 0 0
0 0 0 0 0 0 0 0 0 0 0 0 0 0 0 0 0 0 0 0 0 0 0 0 0 0 0 148 115 3 0 3 46 27 31 89 125 21 1 3 0 0 0 4 0
0 0 0 0 0 0 0 0 0 0 0 0 0 0 0 0 0 0 0 0 0 0 0 0 0 0 383 215 2 73 40 4 52 30 49 105 115 82 24 12 0 0 0 0 0
0 0 0 0 0 0 0 0 0 0 0 0 0 0 0 0 0 0 0 0 0 0 0 0 0 0 1 173 78 5 1 30 20 6 74 124 63 97 39 7 0 0 0 0 0
0 0 0 0 0 0 0 0 0 0 0 0 0 0 0 0 0 0 0 0 0 0 0 0 0 0 109 219 78 15 13 8 13 15 69 60 117 178 56 19 8 0 0 0 0
0 0 0 0 0 0 0 0 0 0 0 0 0 0 0 0 0 0 0 0 0 0 0 0 0 0 356 230 106 77 0 8 53 32 78 69 60 84 31 26 20 0 3 8 4
0 0 0 0 0 0 0 0 0 0 0 0 0 0 0 0 0 0 0 0 0 0 0 0 0 30 187 114 73 133 66 45 35 63 54 64 43 105 85 32 28 14 25 25 23
0 0 0 0 0 0 0 0 0 0 0 0 0 0 0 0 0 0 0 0 0 0 0 0 0 120 140 97 26 33 2 22 61 52 31 35 52 79 142 50 15 56 58 54 51
0 0 0 0 0 0 0 0 0 0 0 0 0 0 0 0 0 0 0 0 0 0 0 0 2 29 89 31 1 0 0 6 11 56 34 6 13 30 121 60 78 67 74 86 91
0 0 0 0 0 0 0 0 0 0 0 0 0 0 0 0 0 0 0 0 0 0 0 0 0 24 29 53 37 38 0 0 19 111 60 36 20 0 61 99 91 112 104 116 106
0 0 0 0 0 0 0 0 0 0 0 0 0 0 0 0 0 0 0 0 0 0 0 0 0 0 0 2 26 3 0 0 31 185 90 94 37 32 16 54 76 84 67 83 101
0 0 0 0 0 0 0 0 0 0 0 0 0 0 0 0 0 0 0 0 0 0 0 0 0 0 0 0 0 0 0 0 0 126 265 162 58 99 95 47 64 99 77 54 50
0 0 0 0 0 0 0 0 0 0 0 0 0 0 0 0 0 0 0 0 0 0 0 0 0 0 0 0 0 0 0 0 30 73 27 123 4 44 129 73 47 31 103 37 50
0 0 0 0 0 0 0 0 0 0 0 0 0 0 0 0 0 0 0 0 0 0 0 0 0 0 0 0 0 0 0 7 162 77 103 85 27 21 57 102 56 28 17 86 76
0 0 0 0 0 0 0 0 0 0 0 0 0 0 0 0 0 0 0 0 0 0 0 0 0 0 0 0 0 20 65 80 95 79 16 21 26 0 43 81 49 48 22 18 99
0 0 0 0 0 0 0 0 0 0 0 0 0 0 0 0 0 0 0 0 0 0 0 0 0 0 0 0 0 0 4 8 11 18 0 0 14 0 83 93 165 196 60 2 2
0 0 0 0 0 0 0 0 0 0 0 0 0 0 0 0 0 0 0 0 0 0 0 0 0 0 0 0 0 0 0 0 0 0 0 11 0 0 88 90 166 371 228 79 0
0 0 0 0 0 0 0 0 0 0 0 0 0 0 0 0 0 0 0 0 0 0 0 0 0 0 0 0 0 0 0 0 0 0 0 0 9 83 94 56 92 93 153 59 3
0 0 0 0 0 0 0 0 0 0 0 0 0 0 0 0 0 0 0 0 0 0 0 0 0 0 0 0 0 0 0 0 0 0 0 1 19 21 9 0 4 29 56 168 4
0 0 0 0 0 0 0 0 0 0 0 0 0 0 0 0 0 0 0 0 0 0 0 0 0 0 0 0 0 0 0 0 0 0 0 0 0 22 9 0 0 3 0 0 82
0 0 0 0 0 0 0 0 0 0 0 0 0 0 0 0 0 0 0 0 0 0 0 0 0 0 0 0 0 0 0 0 0 0 0 0 0 0 0 0 0 25 74 206 235
0 0 0 0 0 0 0 0 0 0 0 0 0 0 0 0 0 0 0 0 0 0 0 0 0 0 0 0 0 0 0 0 0 0 0 0 0 0 42 38 174 358 225 264 198
0 0 0 0 0 0 0 0 0 0 0 0 0 0 0 0 0 0 0 0 0 0 0 0 0 0 0 0 0 0 0 0 0 0 0 0 0 3 52 127 258 212 211 282 302
0 0 0 0 0 0 0 0 0 0 0 0 0 0 0 0 0 0 0 0 0 0 0 0 0 0 0 0 0 0 0 0 0 0 0 0 0 0 25 257 198 181 178 324 364
0 0 0 0 0 0 0 0 0 0 0 0 0 0 0 0 0 0 0 0 0 0 0 0 0 0 0 0 0 0 0 0 0 0 0 0 0 0 15 250 144 222 143 294 402
0 0 0 0 0 0 0 0 0 0 0 0 0 0 0 0 0 0 0 0 0 0 0 0 0 0 0 1 6 0 0 0 0 0 0 0 0 0 5 105 112 125 115 178 208
CIN
0 0 0 0 0 -1 0 0 0 0 0 0 0 0 0 0 0 0 0 0 0 0 0 0 0 0 0 -135 -152 0 0 -44 -42 -12 -42 -63 -66 -30 -119 0 -41 -3 0 0 0
0 0 0 0 0 0 0 0 0 0 0 0 0 0 0 0 0 0 0 0 0 0 0 0 0 0 0 -32 -35 0 0 -14 -49 -20 -94 -66 -71 -64 -38 -60 0 0 0 0 0
0 0 0 0 0 0 0 0 0 0 0 0 0 0 0 0 0 0 0 0 0 0 0 0 0 0 0 -118 -85 -12 0 -93 -50 -26 -66 -66 -28 -77 -19 -41 0 0 0 -220 0
0 0 0 0 0 0 0 0 0 0 0 0 0 0 0 0 0 0 0 0 0 0 0 0 0 0 -56 -61 -18 -62 -66 -70 -91 -44 -46 -46 -73 -68 -67 -51 0 0 0 0 0
0 0 0 0 0 0 0 0 0 0 0 0 0 0 0 0 0 0 0 0 0 0 0 0 0 0 -5 -86 -108 -106 -41 -54 -59 -69 -42 -45 -79 -62 -61 -86 -10 0 0 0 0
0 0 0 0 0 0 0 0 0 0 0 0 0 0 0 0 0 0 0 0 0 0 0 0 0 0 -78 -94 -108 -134 -122 -88 -89 -59 -34 -31 -25 -39 -73 -95 -114 0 0 0 0
0 0 0 0 0 0 0 0 0 0 0 0 0 0 0 0 0 0 0 0 0 0 0 0 0 0 -102 -97 -122 -104 0 -65 -48 -36 -34 -27 -15 -57 -101 -112 -85 0 -43 -138 -135
0 0 0 0 0 0 0 0 0 0 0 0 0 0 0 0 0 0 0 0 0 0 0 0 0 -142 -131 -167 -119 -65 -57 -25 -63 -54 -49 -61 -34 -54 -100 -90 -77 -105 -127 -115 -126
0 0 0 0 0 0 0 0 0 0 0 0 0 0 0 0 0 0 0 0 0 0 0 0 0 -125 -155 -91 -84 -83 -19 -61 -50 -70 -72 -59 -23 -51 -82 -67 -107 -101 -102 -96 -104
0 0 0 0 0 0 0 0 0 0 0 0 0 0 0 0 0 0 0 0 0 0 0 0 -56 -89 -123 -79 -16 0 0 -64 -45 -73 -87 -33 -41 -80 -53 -72 -72 -89 -82 -84 -95
0 0 0 0 0 0 0 0 0 0 0 0 0 0 0 0 0 0 0 0 0 0 0 0 0 -50 -41 -56 -67 -72 0 0 -65 -81 -77 -93 -49 0 -65 -68 -98 -91 -72 -74 -89
0 0 0 0 0 0 0 0 0 0 0 0 0 0 0 0 0 0 0 0 0 0 0 0 0 0 -4 -23 -64 -58 0 0 -96 -80 -81 -69 -77 -85 -101 -92 -96 -88 -97 -64 -86
0 0 0 0 0 0 0 0 0 0 0 0 0 0 0 0 0 0 0 0 0 0 0 0 0 0 0 0 0 0 0 0 0 -74 -64 -62 -67 -83 -138 -145 -156 -102 -109 -81 -80
0 0 0 0 0 0 0 0 0 0 0 0 0 0 0 0 0 0 0 0 0 0 0 0 0 0 0 0 0 0 0 0 -89 -62 -22 -78 -16 -82 -133 -147 -140 -148 -98 -127 -113
0 0 0 0 0 0 0 0 0 0 0 0 0 0 0 0 0 0 0 0 0 0 0 0 0 0 0 0 0 0 0 -103 -77 -60 -40 -37 -37 -39 -180 -116 -135 -147 -149 -111 -148
0 0 0 0 0 0 0 0 0 0 0 0 0 0 0 0 0 0 0 0 0 0 0 0 0 0 0 0 0 -120 -99 -149 -171 -92 -36 -55 -33 -1 -59 -81 -134 -158 -172 -162 -107
0 0 0 0 0 0 0 0 0 0 0 0 0 0 0 0 0 0 0 0 0 0 0 0 0 0 0 0 0 0 -24 -14 -9 -23 0 0 -38 0 -92 -170 -170 -142 -173 -75 -163
0 0 0 0 0 0 0 0 0 0 0 0 0 0 0 0 0 0 0 0 0 0 0 0 0 0 0 0 0 0 0 0 0 0 0 -70 0 0 -166 -241 -244 -181 -173 -186 -28
0 0 0 0 0 0 0 0 0 0 0 0 0 0 0 0 0 0 0 0 0 0 0 0 0 0 0 0 0 0 0 0 0 0 0 0 -63 -112 -170 -197 -235 -231 -186 -172 -212
0 0 0 0 0 0 0 0 0 0 0 0 0 0 0 0 0 0 0 0 0 0 0 0 0 0 0 0 0 0 0 0 0 0 0 -11 -32 -18 -69 0 -110 -243 -206 -176 -124
0 0 0 0 0 0 0 0 0 0 0 0 0 0 0 0 0 0 0 0 0 0 0 0 0 0 0 0 0 0 0 0 0 0 0 0 0 -107 -56 0 0 -226 0 0 -210
0 0 0 0 0 0 0 0 0 0 0 0 0 0 0 0 0 0 0 0 0 0 0 0 0 0 0 0 0 0 0 0 0 0 0 0 0 -11 0 0 0 -240 -252 -195 -192
0 0 0 0 0 0 0 0 0 0 0 0 0 0 0 0 0 0 0 0 0 0 0 0 0 0 0 0 0 0 0 0 0 0 0 0 0 0 -256 -228 -212 -158 -202 -200 -211
0 0 0 0 0 0 0 0 0 0 0 0 0 0 0 0 0 0 0 0 0 0 0 0 0 0 0 0 0 0 0 0 0 0 0 0 0 -169 -165 -153 -147 -166 -202 -183 -156
0 0 0 0 0 0 0 0 0 0 0 0 0 0 0 0 0 0 0 0 0 0 0 0 0 0 0 0 0 0 0 0 0 0 0 0 0 0 -219 -132 -152 -177 -182 -141 -101
0 0 0 0 0 0 0 0 0 0 0 0 0 0 0 0 0 0 0 0 0 0 0 0 0 0 0 0 0 0 0 0 0 0 0 0 0 0 -268 -149 -134 -125 -149 -103 -66
0 0 0 0 0 0 0 0 0 0 0 0 0 0 0 0 0 0 0 0 0 0 0 0 0 0 0 -32 -69 0 0 0 -7 -5 0 0 0 0 -36 -122 -123 -128 -155 -128 -76
Wind_Speed
6 11 15 17 18 19 20 21 21 21 21 21 21 21 21 22 21 12 8 9 11 12 14 14 14 15 16 18 20 20 17 10 5 18 14 16 18 20 18 20 15 17 22 21 21
4 6 9 12 14 16 18 19 21 21 22 21 21 21 21 21 14 7 6 11 10 12 11 13 14 15 15 16 20 21 19 15 21 19 18 17 19 19 20 19 20 21 13 20 22
3 4 6 7 8 9 9 11 15 20 21 21 21 21 20 18 11 10 10 10 7 9 10 11 13 14 15 16 17 18 16 15 17 15 16 17 21 19 21 17 19 25 26 26 24
6 5 7 7 7 6 6 6 8 13 15 19 21 20 19 12 10 11 12 6 5 8 9 10 13 14 15 16 17 19 17 15 17 19 16 14 20 18 19 17 20 25 26 26 25
6 5 6 7 7 6 5 4 4 6 8 9 19 19 13 11 11 13 11 5 4 7 7 10 13 14 15 15 18 18 18 10 19 11 16 17 22 16 19 20 21 24 26 25 24
6 2 2 3 4 3 3 4 5 7 10 13 16 16 12 11 13 11 10 5 4 5 6 9 13 13 13 14 18 18 19 18 11 9 9 10 19 18 17 18 20 24 25 24 23
14 7 5 3 3 3 3 6 7 10 13 15 16 15 11 11 14 10 9 7 4 4 6 9 12 12 12 14 14 17 18 17 16 14 11 18 15 16 13 16 19 24 24 23 23
19 13 8 5 4 4 3 3 8 14 16 16 17 16 12 12 14 10 8 8 6 5 8 11 12 10 13 11 11 14 15 15 15 14 9 12 5 16 9 15 18 22 25 23 23
23 19 12 7 5 3 2 6 15 16 17 17 17 18 15 15 11 8 6 6 5 7 11 12 10 11 10 9 11 13 14 14 14 16 12 12 10 17 16 19 17 20 23 24 24
27 25 18 8 3 4 4 18 20 17 17 16 16 17 16 16 11 8 7 6 8 7 8 11 11 9 8 7 11 13 14 14 12 14 14 9 14 10 12 14 18 18 21 25 27
30 29 25 17 3 9 17 17 20 18 16 15 15 15 16 14 11 9 7 6 8 10 8 15 11 5 5 4 12 14 15 16 16 11 9 13 6 14 14 10 12 13 19 24 28
32 31 28 26 7 11 17 19 20 20 17 13 12 12 13 14 12 10 7 7 9 9 14 16 11 17 25 25 22 22 22 19 15 12 9 14 16 15 13 18 14 14 21 25 26
34 32 30 28 19 15 16 17 16 19 17 16 14 14 15 14 13 10 7 8 8 14 18 14 17 16 3 14 18 25 24 22 18 12 13 16 18 10 5 16 21 17 17 21 25
36 34 31 28 15 14 14 15 14 15 18 17 15 14 15 15 15 11 10 8 9 9 10 20 21 20 7 16 7 27 16 13 11 14 18 14 19 18 9 9 21 21 14 17 20
37 35 31 22 15 12 14 15 16 16 18 16 14 15 14 14 16 11 14 8 8 8 9 14 13 11 9 12 5 7 15 8 10 15 18 18 19 19 17 15 20 21 20 16 15
38 36 30 16 11 9 14 15 15 15 15 14 13 13 13 12 13 13 10 10 12 11 14 22 14 11 10 12 7 10 13 13 14 15 20 18 17 22 19 18 20 25 21 18 6
39 37 22 13 12 11 18 13 14 13 14 13 11 10 11 12 12 11 14 12 10 10 12 17 14 14 7 11 12 15 14 19 18 16 18 18 15 20 20 20 22 22 22 4 16
40 33 16 12 12 12 12 11 11 12 11 14 11 10 9 10 11 10 11 11 8 10 12 11 10 16 13 11 7 7 11 9 14 14 19 15 20 20 17 20 22 22 24 25 6
39 25 19 15 2 12 7 7 9 10 13 15 12 10 13 11 10 9 8 10 9 8 9 11 13 17 16 11 11 13 15 13 13 17 18 18 22 23 17 18 20 23 24 23 12
34 26 19 16 5 8 9 9 9 9 14 15 12 11 14 13 6 7 10 13 11 6 9 11 15 18 17 15 16 13 11 15 18 19 21 20 21 20 17 18 21 22 23 23 17
26 20 22 12 9 11 11 11 11 10 13 15 15 16 16 14 10 7 12 12 10 11 7 12 15 19 18 18 16 15 16 17 16 18 21 22 22 17 17 18 22 22 26 25 24
22 19 17 13 11 14 14 14 14 13 14 12 13 15 16 12 11 9 8 10 9 10 8 13 14 17 15 14 18 16 15 16 19 21 21 22 24 19 21 21 22 25 27 29 29
26 17 16 14 12 13 17 15 17 20 16 12 14 13 12 12 14 12 11 11 8 8 7 9 16 15 18 17 16 17 18 17 17 19 21 24 27 22 24 24 24 26 27 27 25
20 20 15 13 15 15 17 18 18 21 21 17 16 14 13 13 13 12 12 12 9 9 10 13 14 12 11 14 13 16 17 18 20 24 24 25 30 25 25 25 25 25 26 25 23
19 18 15 19 18 21 21 22 23 22 20 20 16 15 15 15 14 15 15 13 10 7 12 13 12 13 14 14 14 17 18 17 19 22 24 26 29 27 25 24 25 25 25 23 20
20 19 19 20 20 20 20 19 19 22 22 22 19 22 19 14 14 15 12 11 5 7 10 14 13 14 14 17 18 20 22 19 17 23 27 31 38 25 22 21 23 21 21 21 18
17 17 18 19 19 21 19 20 21 26 24 24 23 27 23 20 12 14 8 7 7 7 9 12 13 14 13 18 18 21 16 13 16 17 18 25 29 18 18 20 19 17 18 19 18
Wind_Direction
245 281 294 302 306 307 308 309 307 304 296 287 283 286 286 287 286 345 34 69 58 67 55 58 58 51 3 360 6 22 8 38 32 130 64 74 86 117 91 92 106 131 131 116 93
202 240 263 276 283 292 294 297 302 302 297 288 287 290 293 298 331 33 35 103 73 72 43 73 75 74 46 39 9 5 20 86 209 215 221 199 107 116 96 96 87 76 54 83 95
229 224 239 245 247 251 251 258 273 288 293 290 290 297 301 310 0 5 348 103 63 44 12 25 58 89 72 46 52 50 10 71 100 92 230 223 112 112 103 109 111 121 113 112 106
263 251 250 249 244 236 231 226 237 257 258 271 298 305 304 354 32 349 329 94 54 11 8 40 61 34 23 57 76 26 58 79 107 119 245 239 186 99 115 113 117 124 112 119 125
271 253 253 246 240 233 225 201 172 198 189 176 335 325 4 29 18 334 347 53 19 7 28 41 19 2 5 27 38 64 98 326 111 75 216 174 174 106 127 84 90 112 127 129 121
281 252 218 211 217 189 141 127 114 110 95 75 29 356 22 23 351 9 12 28 7 22 43 28 351 352 18 14 358 42 52 61 29 9 354 328 206 124 116 94 101 122 136 136 137
298 280 265 245 214 184 137 96 92 87 76 66 50 34 23 20 343 6 10 355 357 45 31 360 339 344 26 16 18 42 40 56 76 66 327 178 237 110 83 95 110 142 146 161 161
305 292 279 260 236 207 165 138 88 74 68 66 54 39 19 14 349 360 356 336 321 323 323 331 326 15 342 24 2 11 16 31 58 84 28 109 71 86 72 97 123 142 158 163 171
312 301 285 269 245 193 176 85 50 53 50 53 39 28 20 2 7 3 32 350 332 304 304 307 325 332 349 15 5 351 8 23 23 112 324 238 352 129 112 137 133 146 158 167 178
316 309 291 267 223 133 115 44 41 40 34 42 48 27 38 7 32 24 342 337 315 305 306 302 301 325 326 355 349 5 353 348 2 111 113 354 308 351 126 135 158 145 163 177 186
320 315 305 282 163 74 49 52 39 36 25 36 33 37 36 15 10 21 352 350 312 285 297 274 299 326 92 72 328 339 341 330 322 0 62 145 64 144 140 111 142 151 160 175 186
321 318 312 303 235 69 60 53 50 35 35 53 79 71 72 50 31 356 358 328 297 281 272 273 295 171 213 228 265 270 283 311 333 352 24 332 180 168 142 162 144 155 167 181 186
321 318 314 310 333 51 58 61 56 27 46 38 54 55 50 74 35 69 54 334 309 269 263 269 281 243 68 292 276 240 242 276 304 339 331 326 313 339 53 163 179 165 165 172 179
321 318 315 307 23 33 60 59 50 61 42 50 43 48 57 55 38 70 72 4 320 310 298 258 260 270 317 290 336 260 280 323 333 319 306 326 298 314 350 144 185 180 157 166 175
318 318 316 342 5 37 49 46 43 42 24 48 50 49 52 50 37 32 99 340 354 17 334 289 302 321 327 149 -0 13 319 6 349 320 305 305 302 307 325 329 194 188 179 167 163
315 315 322 355 5 53 21 35 48 38 35 55 54 47 46 45 21 21 50 327 312 341 305 208 305 327 337 325 23 17 343 327 327 325 301 309 306 294 319 325 306 228 188 184 193
311 311 338 353 350 1 342 32 34 35 27 58 58 44 62 38 47 50 87 77 29 7 318 294 302 309 348 329 329 317 320 296 302 310 305 321 327 306 315 314 306 299 279 229 188
310 320 352 346 340 333 357 15 31 49 32 25 45 348 8 27 3 48 36 70 60 6 346 330 319 313 336 317 352 356 332 321 310 314 310 322 307 317 331 316 313 312 291 287 217
315 338 340 337 39 328 345 350 18 46 22 350 22 347 315 328 351 23 37 13 30 98 2 339 320 323 340 347 340 328 329 323 324 315 312 314 308 304 323 331 325 316 309 300 307
323 325 332 334 37 340 315 319 349 21 10 344 351 15 314 322 4 12 356 3 9 75 345 342 318 324 328 337 332 331 353 318 307 305 304 309 309 312 320 329 326 319 309 305 314
326 322 322 336 329 312 300 300 318 344 353 342 323 318 321 321 322 346 344 348 27 355 354 341 328 319 328 328 324 324 322 324 324 313 304 304 305 315 321 329 321 317 305 306 298
335 321 325 319 304 301 296 295 310 316 325 338 331 320 311 327 331 340 4 1 54 50 25 332 338 326 333 338 330 332 329 324 311 305 304 303 300 313 310 315 317 307 307 301 290
330 327 318 305 300 297 297 297 301 299 301 320 323 325 324 315 313 327 348 2 45 35 31 350 324 331 324 325 323 326 329 328 322 312 302 296 296 309 304 307 312 308 306 306 303
340 322 322 311 301 299 298 294 294 293 291 294 308 321 313 308 320 323 328 343 3 14 359 337 331 346 343 343 344 329 327 323 315 303 301 298 296 305 303 307 307 307 310 313 309
338 323 327 306 297 297 289 287 287 285 287 289 294 307 303 306 309 311 318 324 336 25 340 340 349 342 343 340 343 334 327 328 316 308 303 303 299 300 302 303 301 303 307 314 315
328 323 321 309 305 300 290 286 285 281 280 279 282 292 297 304 321 315 317 320 322 347 350 329 338 335 336 330 332 328 322 325 323 308 301 295 277 302 306 305 302 307 310 314 320
343 336 324 310 304 295 290 285 280 283 276 272 279 286 284 290 309 316 327 337 335 332 338 337 330 331 331 325 331 326 335 341 336 327 316 303 298 309 303 301 304 311 309 309 323